KFDW

Details ICAO KFDW
Name Fairfield Co
Region United States
Timezone America/New_York (UTC-4.0)
Plans Departing 16
Arriving 6
Stats Elevation 577 ft / 176 m (AMSL)
Location 34.315464° -81.108800°
Runways 1
Magnetic Variation 7.460° W
Sunrise 2018-05-21 10:19:47 UTC / 2018-05-21 06:19:47 Local
Sunset 2018-05-22 00:25:09 UTC / 2018-05-21 20:25:09 Local
Advertisement - Login to hide

Runways

ID Width Length Bearing (true) Bearing (mag) Surface Threshold Offset Overrun Length
04 100 ft / 30 m 5,010 ft / 1,527 m 38.09° 45.55° Asphalt 0 ft / 0 m 0 ft / 0 m
22 100 ft / 30 m 5,010 ft / 1,527 m 218.10° 225.56° Asphalt 0 ft / 0 m 0 ft / 0 m

Map

Weather


0- 5 10 15 20 25 30 35+ Temperature / ° C

Clouds and Precipitation
Forecast for 2018-05-21 18:00 UTC. Updated 2 hours ago

Ground ~20,000 ft ~40,000 ft Winds

METAR

KFDW 211835Z AUTO 29005KT 10SM SCT050 SCT070 BKN110 28/18 A3014 RMK AO1

TAF

Not found

Frequencies

Recorded 119.07 MHz AWOS 3
Approach 133.40 MHz COLUMBIA APP/DEP
Unicom 122.80 MHz CTAF/UNICOM
Warning: Do not use this data for real-world aviation or navigation. No guarantee of current accuracy is given.